{"data":{"norad_id":65208,"intl_designator":"2025-176L","name":"STARLINK-34841","alt_names":[],"object_type":"PAYLOAD","status":"ACTIVE","operator":null,"country":"US","launch_date":"2025-08-14","launch_site_code":"AFETR","launch_vehicle":null,"mission":null,"orbit_class":"UNKNOWN","rcs_meters":null,"size_class":null,"mass_kg":null,"dimensions":null,"purposes":["comms"],"wikipedia_slug":null,"has_3d_model":false,"image_url":null,"decayed_at":null,"tle_current":{"epoch":"2026-05-25T01:20:38.008608Z","epoch_age_seconds":74193,"freshness":"FRESH","line1":"1 65208U 25176L   26145.05599547  .00020179  00000+0  60619-3 0  9997","line2":"2 65208  53.1583 157.2294 0001232  94.7736 265.3407 15.34430110 44829","mean_motion":15.3443011,"eccentricity":0.0001232,"inclination_deg":53.1583,"raan_deg":157.2294,"arg_perigee_deg":94.7736,"mean_anomaly_deg":265.3407,"bstar":0.00060619,"rev_number":4482,"period_min":93.845916514243,"perigee_km":461.77096791294,"apogee_km":463.45652889735,"semimajor_km":6840.7507484051,"source":"CELESTRAK","updated_at":"2026-05-25T13:38:20.719704Z"}}}